Weather History for Yuma MCAS, AZ

Change the Weather History Date:

Tuesday, November 2, 2010

  Actual Average Record
Temperature  
Mean Temperature 78 °F 71 °F  
Max Temperature 92 °F 83 °F 94 °F (1950)
Min Temperature 63 °F 59 °F 40 °F (1919)
Degree Days  
Heating Degree Days 0 0  
Month to date heating degree days 0 0  
Since 1 July heating degree days 0 2  
Cooling Degree Days 13 6  
Month to date cooling degree days 20 13  
Year to date cooling degree days 4317 4575  
Growing Degree Days 28 (Base 50)    
Moisture  
Dew Point 29 °F    
Average Humidity 22    
Maximum Humidity 34    
Minimum Humidity 10    
Precipitation  
Precipitation 0.00 in 0.00 in 0.01 in (2001)
Month to date precipitation 0.00 0.01  
Year to date precipitation 4.43 2.84  
Sea Level Pressure  
Sea Level Pressure 30.09 in    
Wind  
Wind Speed 7 mph (North)    
Max Wind Speed 18 mph    
Max Gust Speed 21 mph    
Visibility 10 miles    
Events      
T = Trace of Precipitation, MM = Missing Value Source: NWS Daily Summary

Daily Weather History Graph

Daily Weather History Graph

Search for Another Location

Airport:

Trip Planner

Search our weather history database for the weather conditions in past years. The results will help you decide how hot, cold, wet, or windy it might be!

Date:

Astronomy

Nov. 02, 2010 Rise Set
Actual Time 6:56 AM MST 5:46 PM MST
Civil Twilight 6:31 AM MST 6:12 PM MST
Nautical Twilight 6:02 AM MST 6:41 PM MST
Astronomical Twilight 5:33 AM MST 7:10 PM MST
Moon 3:01 AM MST (11/2) 3:17 PM MST (11/2)
Length of Visible Light 11h 40m
Length of Day
10h 49m
Waning Crescent, 16% of the Moon is Illuminated
Nov 2
Waning Crescent
Nov 5
New
Nov 13
First Quarter
Nov 21
Full
Nov 28
Last Quarter

Hourly Weather History & Observations

Time (MST) Temp. Dew Point Humidity Pressure Visibility Wind Dir Wind Speed Gust Speed Precip Events Conditions
12:55 AM 70.0 °F 33.1 °F 26% 30.12 in 10.0 mi NNW 5.8 mph - N/A   Clear
1:55 AM 66.0 °F 35.1 °F 32% 30.12 in 10.0 mi NW 3.5 mph - N/A   Clear
2:55 AM 66.9 °F 33.1 °F 28% 30.11 in 10.0 mi WNW 6.9 mph - N/A   Clear
3:55 AM 69.1 °F 30.9 °F 24% 30.11 in 10.0 mi NNW 8.1 mph - N/A   Clear
4:55 AM 70.0 °F 30.9 °F 24% 30.12 in 10.0 mi North 6.9 mph - N/A   Clear
5:55 AM 66.9 °F 32.0 °F 27% 30.14 in 10.0 mi NE 3.5 mph - N/A   Clear
6:55 AM 64.0 °F 35.1 °F 34% 30.14 in 10.0 mi Calm Calm - N/A   Clear
7:55 AM 69.1 °F 33.1 °F 26% 30.17 in 10.0 mi NE 6.9 mph - N/A   Clear
8:55 AM 73.9 °F 33.1 °F 22% 30.18 in 10.0 mi NNE 10.4 mph - N/A   Clear
9:55 AM 81.0 °F 33.1 °F 18% 30.17 in 10.0 mi North 9.2 mph - N/A   Clear
10:55 AM 84.9 °F 28.0 °F 13% 30.17 in 10.0 mi NNE 12.7 mph - N/A   Clear
11:55 AM 88.0 °F 27.0 °F 11% 30.15 in 10.0 mi NNE 9.2 mph - N/A   Clear
12:55 PM 90.0 °F 27.0 °F 10% 30.10 in 10.0 mi North 6.9 mph - N/A   Clear
1:55 PM 91.0 °F 26.1 °F 10% 30.06 in 10.0 mi North 9.2 mph - N/A   Clear
2:55 PM 91.9 °F 27.0 °F 10% 30.04 in 10.0 mi North 11.5 mph - N/A   Clear
3:55 PM 91.9 °F 26.1 °F 9% 30.02 in 10.0 mi North 9.2 mph - N/A   Clear
4:55 PM 90.0 °F 26.1 °F 10% 30.01 in 10.0 mi North 9.2 mph - N/A   Clear
5:55 PM 86.0 °F 25.0 °F 11% 30.01 in 10.0 mi North 9.2 mph - N/A   Clear
6:55 PM 82.9 °F 24.1 °F 12% 30.04 in 10.0 mi North 6.9 mph - N/A   Clear
7:55 PM 80.1 °F 25.0 °F 13% 30.04 in 10.0 mi North 6.9 mph - N/A   Clear
8:55 PM 77.0 °F 26.1 °F 15% 30.04 in 10.0 mi North 4.6 mph - N/A   Clear
9:55 PM 77.0 °F 23.0 °F 13% 30.05 in 10.0 mi North 5.8 mph - N/A   Clear
10:55 PM 73.0 °F 27.0 °F 18% 30.05 in 10.0 mi NW 3.5 mph - N/A   Clear
11:55 PM 71.1 °F 28.0 °F 20% 30.04 in 10.0 mi NNE 3.5 mph - N/A   Clear